Year,Month,Day,Hour,Minute,Value (Times are PST for temperature in C)
2009,08,27,00,00,12.80
2009,08,27,00,01,12.80
2009,08,27,00,02,12.80
2009,08,27,00,03,12.80
2009,08,27,00,04,12.70
2009,08,27,00,05,12.70
2009,08,27,00,06,12.70
2009,08,27,00,07,12.70
2009,08,27,00,08,12.70
2009,08,27,00,09,12.70
2009,08,27,00,10,12.70
2009,08,27,00,11,12.60
2009,08,27,00,12,12.60
2009,08,27,00,13,12.60
2009,08,27,00,14,12.60
2009,08,27,00,15,12.60
2009,08,27,00,16,12.60
2009,08,27,00,17,12.60
2009,08,27,00,18,12.60
2009,08,27,00,19,12.50
2009,08,27,00,20,12.50
2009,08,27,00,21,12.50
2009,08,27,00,22,12.50
2009,08,27,00,23,12.40
2009,08,27,00,24,12.40
2009,08,27,00,25,12.40
2009,08,27,00,26,12.40
2009,08,27,00,27,12.40
2009,08,27,00,28,12.40
2009,08,27,00,29,12.40
2009,08,27,00,30,12.40
2009,08,27,00,31,12.30
2009,08,27,00,32,12.30
2009,08,27,00,33,12.30
2009,08,27,00,34,12.30
2009,08,27,00,35,12.30
2009,08,27,00,36,12.30
2009,08,27,00,37,12.30
2009,08,27,00,38,12.30
2009,08,27,00,39,12.30
2009,08,27,00,40,12.30
2009,08,27,00,41,12.30
2009,08,27,00,42,12.30
2009,08,27,00,43,12.30
2009,08,27,00,44,12.30
2009,08,27,00,45,12.30
2009,08,27,00,46,12.30
2009,08,27,00,47,12.30
2009,08,27,00,48,12.30
2009,08,27,00,49,12.30
2009,08,27,00,50,12.30
2009,08,27,00,51,12.30
2009,08,27,00,52,12.20
2009,08,27,00,53,12.20
2009,08,27,00,54,12.20
2009,08,27,00,55,12.20
2009,08,27,00,56,12.20
2009,08,27,00,57,12.20
2009,08,27,00,58,12.20
2009,08,27,00,59,12.20
2009,08,27,01,00,12.20
2009,08,27,01,01,12.20
2009,08,27,01,02,12.20
2009,08,27,01,03,12.20
2009,08,27,01,04,12.20
2009,08,27,01,05,12.20
2009,08,27,01,06,12.20
2009,08,27,01,07,12.20
2009,08,27,01,08,12.10
2009,08,27,01,09,12.10
2009,08,27,01,10,12.10
2009,08,27,01,11,12.10
2009,08,27,01,12,12.10
2009,08,27,01,13,12.10
2009,08,27,01,14,12.10
2009,08,27,01,15,12.00
2009,08,27,01,16,12.00
2009,08,27,01,17,12.00
2009,08,27,01,18,11.90
2009,08,27,01,19,11.90
2009,08,27,01,20,11.90
2009,08,27,01,21,11.90
2009,08,27,01,22,11.90
2009,08,27,01,23,11.80
2009,08,27,01,24,11.80
2009,08,27,01,25,11.80
2009,08,27,01,26,11.80
2009,08,27,01,27,11.80
2009,08,27,01,28,11.80
2009,08,27,01,29,11.80
2009,08,27,01,30,11.70
2009,08,27,01,31,11.70
2009,08,27,01,32,11.70
2009,08,27,01,33,11.70
2009,08,27,01,34,11.70
2009,08,27,01,35,11.70
2009,08,27,01,36,11.70
2009,08,27,01,37,11.70
2009,08,27,01,38,11.60
2009,08,27,01,39,11.60
2009,08,27,01,40,11.60
2009,08,27,01,41,11.60
2009,08,27,01,42,11.60
2009,08,27,01,43,11.60
2009,08,27,01,44,11.60
2009,08,27,01,45,11.60
2009,08,27,01,46,11.50
2009,08,27,01,47,11.50
2009,08,27,01,48,11.50
2009,08,27,01,49,11.50
2009,08,27,01,50,11.50
2009,08,27,01,51,11.40
2009,08,27,01,52,11.40
2009,08,27,01,53,11.40
2009,08,27,01,54,11.40
2009,08,27,01,55,11.40
2009,08,27,01,56,11.40
2009,08,27,01,57,11.40
2009,08,27,01,58,11.40
2009,08,27,01,59,11.40
2009,08,27,02,00,11.40
2009,08,27,02,01,11.40
2009,08,27,02,02,11.40
2009,08,27,02,03,11.40
2009,08,27,02,04,11.30
2009,08,27,02,05,11.30
2009,08,27,02,06,11.30
2009,08,27,02,07,11.30
2009,08,27,02,08,11.30
2009,08,27,02,09,11.30
2009,08,27,02,10,11.30
2009,08,27,02,11,11.30
2009,08,27,02,12,11.30
2009,08,27,02,13,11.30
2009,08,27,02,14,11.30
2009,08,27,02,15,11.30
2009,08,27,02,16,11.30
2009,08,27,02,17,11.30
2009,08,27,02,18,11.30
2009,08,27,02,19,11.30
2009,08,27,02,20,11.30
2009,08,27,02,21,11.30
2009,08,27,02,22,11.30
2009,08,27,02,23,11.20
2009,08,27,02,24,11.20
2009,08,27,02,25,11.20
2009,08,27,02,26,11.20
2009,08,27,02,27,11.20
2009,08,27,02,28,11.20
2009,08,27,02,29,11.20
2009,08,27,02,30,11.20
2009,08,27,02,31,11.20
2009,08,27,02,32,11.20
2009,08,27,02,33,11.20
2009,08,27,02,34,11.20
2009,08,27,02,35,11.20
2009,08,27,02,36,11.20
2009,08,27,02,37,11.20
2009,08,27,02,38,11.20
2009,08,27,02,39,11.20
2009,08,27,02,40,11.20
2009,08,27,02,41,11.20
2009,08,27,02,42,11.20
2009,08,27,02,43,11.20
2009,08,27,02,44,11.20
2009,08,27,02,45,11.20
2009,08,27,02,46,11.20
2009,08,27,02,47,11.20
2009,08,27,02,48,11.20
2009,08,27,02,49,11.20
2009,08,27,02,50,11.10
2009,08,27,02,51,11.10
2009,08,27,02,52,11.10
2009,08,27,02,53,11.10
2009,08,27,02,54,11.10
2009,08,27,02,55,11.10
2009,08,27,02,56,11.10
2009,08,27,02,57,11.10
2009,08,27,02,58,11.10
2009,08,27,02,59,11.00
2009,08,27,03,00,11.00
2009,08,27,03,01,11.00
2009,08,27,03,02,11.00
2009,08,27,03,03,11.00
2009,08,27,03,04,11.00
2009,08,27,03,05,11.00
2009,08,27,03,06,10.90
2009,08,27,03,07,10.90
2009,08,27,03,08,10.90
2009,08,27,03,09,10.90
2009,08,27,03,10,10.90
2009,08,27,03,11,10.90
2009,08,27,03,12,10.90
2009,08,27,03,13,10.90
2009,08,27,03,14,10.90
2009,08,27,03,15,10.90
2009,08,27,03,16,10.90
2009,08,27,03,17,10.90
2009,08,27,03,18,10.90
2009,08,27,03,19,10.90
2009,08,27,03,20,10.90
2009,08,27,03,21,10.90
2009,08,27,03,22,10.90
2009,08,27,03,23,10.90
2009,08,27,03,24,10.90
2009,08,27,03,25,10.90
2009,08,27,03,26,10.90
2009,08,27,03,27,10.90
2009,08,27,03,28,10.90
2009,08,27,03,29,10.90
2009,08,27,03,30,10.90
2009,08,27,03,31,10.90
2009,08,27,03,32,10.90
2009,08,27,03,33,10.90
2009,08,27,03,34,10.90
2009,08,27,03,35,10.90
2009,08,27,03,36,10.90
2009,08,27,03,37,11.00
2009,08,27,03,38,11.00
2009,08,27,03,39,11.00
2009,08,27,03,40,11.00
2009,08,27,03,41,11.10
2009,08,27,03,42,11.10
2009,08,27,03,43,11.10
2009,08,27,03,44,11.10
2009,08,27,03,45,11.10
2009,08,27,03,46,11.10
2009,08,27,03,47,11.10
2009,08,27,03,48,11.10
2009,08,27,03,49,11.10
2009,08,27,03,50,11.10
2009,08,27,03,51,11.10
2009,08,27,03,52,11.20
2009,08,27,03,53,11.20
2009,08,27,03,54,11.20
2009,08,27,03,55,11.20
2009,08,27,03,56,11.20
2009,08,27,03,57,11.20
2009,08,27,03,58,11.20
2009,08,27,03,59,11.20
2009,08,27,04,00,11.20
2009,08,27,04,01,11.20
2009,08,27,04,02,11.20
2009,08,27,04,03,11.20
2009,08,27,04,04,11.20
2009,08,27,04,05,11.20
2009,08,27,04,06,11.20
2009,08,27,04,07,11.20
2009,08,27,04,08,11.20
2009,08,27,04,09,11.20
2009,08,27,04,10,11.20
2009,08,27,04,11,11.30
2009,08,27,04,12,11.30
2009,08,27,04,13,11.30
2009,08,27,04,14,11.30
2009,08,27,04,15,11.30
2009,08,27,04,16,11.30
2009,08,27,04,17,11.30
2009,08,27,04,18,11.40
2009,08,27,04,19,11.40
2009,08,27,04,20,11.40
2009,08,27,04,21,11.40
2009,08,27,04,22,11.40
2009,08,27,04,23,11.40
2009,08,27,04,24,11.40
2009,08,27,04,25,11.40
2009,08,27,04,26,11.40
2009,08,27,04,27,11.30
2009,08,27,04,28,11.30
2009,08,27,04,29,11.30
2009,08,27,04,30,11.30
2009,08,27,04,31,11.30
2009,08,27,04,32,11.30
2009,08,27,04,33,11.30
2009,08,27,04,34,11.30
2009,08,27,04,35,11.40
2009,08,27,04,36,11.40
2009,08,27,04,37,11.40
2009,08,27,04,38,11.40
2009,08,27,04,39,11.40
2009,08,27,04,40,11.40
2009,08,27,04,41,11.40
2009,08,27,04,42,11.40
2009,08,27,04,43,11.40
2009,08,27,04,44,11.40
2009,08,27,04,45,11.40
2009,08,27,04,46,11.40
2009,08,27,04,47,11.40
2009,08,27,04,48,11.40
2009,08,27,04,49,11.40
2009,08,27,04,50,11.40
2009,08,27,04,51,11.40
2009,08,27,04,52,11.40
2009,08,27,04,53,11.40
2009,08,27,04,54,11.40
2009,08,27,04,55,11.40
2009,08,27,04,56,11.30
2009,08,27,04,57,11.30
2009,08,27,04,58,11.30
2009,08,27,04,59,11.30
2009,08,27,05,00,11.30
2009,08,27,05,01,11.30
2009,08,27,05,02,11.30
2009,08,27,05,03,11.30
2009,08,27,05,04,11.30
2009,08,27,05,05,11.20
2009,08,27,05,06,11.20
2009,08,27,05,07,11.20
2009,08,27,05,08,11.20
2009,08,27,05,09,11.20
2009,08,27,05,10,11.20
2009,08,27,05,11,11.20
2009,08,27,05,12,11.20
2009,08,27,05,13,11.20
2009,08,27,05,14,11.20
2009,08,27,05,15,11.20
2009,08,27,05,16,11.20
2009,08,27,05,17,11.20
2009,08,27,05,18,11.20
2009,08,27,05,19,11.20
2009,08,27,05,20,11.20
2009,08,27,05,21,11.20
2009,08,27,05,22,11.20
2009,08,27,05,23,11.20
2009,08,27,05,24,11.20
2009,08,27,05,25,11.20
2009,08,27,05,26,11.20
2009,08,27,05,27,11.20
2009,08,27,05,28,11.20
2009,08,27,05,29,11.20
2009,08,27,05,30,11.20
2009,08,27,05,31,11.30
2009,08,27,05,32,11.30
2009,08,27,05,33,11.30
2009,08,27,05,34,11.30
2009,08,27,05,35,11.30
2009,08,27,05,36,11.30
2009,08,27,05,37,11.30
2009,08,27,05,38,11.30
2009,08,27,05,39,11.30
2009,08,27,05,40,11.30
2009,08,27,05,41,11.30
2009,08,27,05,42,11.30
2009,08,27,05,43,11.30
2009,08,27,05,44,11.30
2009,08,27,05,45,11.30
2009,08,27,05,46,11.30
2009,08,27,05,47,11.30
2009,08,27,05,48,11.30
2009,08,27,05,49,11.30
2009,08,27,05,50,11.30
2009,08,27,05,51,11.30
2009,08,27,05,52,11.30
2009,08,27,05,53,11.30
2009,08,27,05,54,11.30
2009,08,27,05,55,11.20
2009,08,27,05,56,11.20
2009,08,27,05,57,11.20
2009,08,27,05,58,11.20
2009,08,27,05,59,11.20
2009,08,27,06,00,11.20
2009,08,27,06,01,11.20
2009,08,27,06,02,11.20
2009,08,27,06,03,11.20
2009,08,27,06,04,11.20
2009,08,27,06,05,11.20
2009,08,27,06,06,11.20
2009,08,27,06,07,11.20
2009,08,27,06,08,11.20
2009,08,27,06,09,11.20
2009,08,27,06,10,11.20
2009,08,27,06,11,11.20
2009,08,27,06,12,11.20
2009,08,27,06,13,11.20
2009,08,27,06,14,11.10
2009,08,27,06,15,11.10
2009,08,27,06,16,11.10
2009,08,27,06,17,11.10
2009,08,27,06,18,11.10
2009,08,27,06,19,11.10
2009,08,27,06,20,11.10
2009,08,27,06,21,11.10
2009,08,27,06,22,11.10
2009,08,27,06,23,11.00
2009,08,27,06,24,11.00
2009,08,27,06,25,11.00
2009,08,27,06,26,11.00
2009,08,27,06,27,10.90
2009,08,27,06,28,10.90
2009,08,27,06,29,10.90
2009,08,27,06,30,10.90
2009,08,27,06,31,10.90
2009,08,27,06,32,10.80
2009,08,27,06,33,10.80
2009,08,27,06,34,10.80
2009,08,27,06,35,10.80
2009,08,27,06,36,10.80
2009,08,27,06,37,10.80
2009,08,27,06,38,10.70
2009,08,27,06,39,10.70
2009,08,27,06,40,10.70
2009,08,27,06,41,10.70
2009,08,27,06,42,10.70
2009,08,27,06,43,10.70
2009,08,27,06,44,10.60
2009,08,27,06,45,10.60
2009,08,27,06,46,10.60
2009,08,27,06,47,10.60
2009,08,27,06,48,10.50
2009,08,27,06,49,10.50
2009,08,27,06,50,10.50
2009,08,27,06,51,10.40
2009,08,27,06,52,10.40
2009,08,27,06,53,10.40
2009,08,27,06,54,10.40
2009,08,27,06,55,10.40
2009,08,27,06,56,10.40
2009,08,27,06,57,10.30
2009,08,27,06,58,10.30
2009,08,27,06,59,10.30
2009,08,27,07,00,10.30
2009,08,27,07,01,10.30
2009,08,27,07,02,10.30
2009,08,27,07,03,10.30
2009,08,27,07,04,10.20
2009,08,27,07,05,10.20
2009,08,27,07,06,10.20
2009,08,27,07,07,10.20
2009,08,27,07,08,10.20
2009,08,27,07,09,10.20
2009,08,27,07,10,10.20
2009,08,27,07,11,10.20
2009,08,27,07,12,10.20
2009,08,27,07,13,10.20
2009,08,27,07,14,10.20
2009,08,27,07,15,10.30
2009,08,27,07,16,10.30
2009,08,27,07,17,10.30
2009,08,27,07,18,10.30
2009,08,27,07,19,10.30
2009,08,27,07,20,10.30
2009,08,27,07,21,10.30
2009,08,27,07,22,10.30
2009,08,27,07,23,10.30
2009,08,27,07,24,10.30
2009,08,27,07,25,10.30
2009,08,27,07,26,10.30
2009,08,27,07,27,10.40
2009,08,27,07,28,10.40
2009,08,27,07,29,10.40
2009,08,27,07,30,10.40
2009,08,27,07,31,10.40
2009,08,27,07,32,10.40
2009,08,27,07,33,10.50
2009,08,27,07,34,10.50
2009,08,27,07,35,10.50
2009,08,27,07,36,10.60
2009,08,27,07,37,10.60
2009,08,27,07,38,10.70
2009,08,27,07,39,10.70
2009,08,27,07,40,10.70
2009,08,27,07,41,10.70
2009,08,27,07,42,10.70
2009,08,27,07,43,10.80
2009,08,27,07,44,10.80
2009,08,27,07,45,10.80
2009,08,27,07,46,10.80
2009,08,27,07,47,10.80
2009,08,27,07,48,10.80
2009,08,27,07,49,10.90
2009,08,27,07,50,10.90
2009,08,27,07,51,10.90
2009,08,27,07,52,11.00
2009,08,27,07,53,11.00
2009,08,27,07,54,11.10
2009,08,27,07,55,11.10
2009,08,27,07,56,11.20
2009,08,27,07,57,11.20
2009,08,27,07,58,11.30
2009,08,27,07,59,11.30
2009,08,27,08,00,11.30
2009,08,27,08,01,11.40
2009,08,27,08,02,11.40
2009,08,27,08,03,11.50
2009,08,27,08,04,11.50
2009,08,27,08,05,11.60
2009,08,27,08,06,11.60
2009,08,27,08,07,11.70
2009,08,27,08,08,11.70
2009,08,27,08,09,11.70
2009,08,27,08,10,11.80
2009,08,27,08,11,11.90
2009,08,27,08,12,12.00
2009,08,27,08,13,12.10
2009,08,27,08,14,12.20
2009,08,27,08,15,12.30
2009,08,27,08,16,12.40
2009,08,27,08,17,12.50
2009,08,27,08,18,12.60
2009,08,27,08,19,12.70
2009,08,27,08,20,12.80
2009,08,27,08,21,12.90
2009,08,27,08,22,13.00
2009,08,27,08,23,13.20
2009,08,27,08,24,13.50
2009,08,27,08,25,13.70
2009,08,27,08,26,13.80
2009,08,27,08,27,14.00
2009,08,27,08,28,14.20
2009,08,27,08,29,14.40
2009,08,27,08,30,14.60
2009,08,27,08,31,14.80
2009,08,27,08,32,15.00
2009,08,27,08,33,15.00
2009,08,27,08,34,15.20
2009,08,27,08,35,15.40
2009,08,27,08,36,15.50
2009,08,27,08,37,15.70
2009,08,27,08,38,15.90
2009,08,27,08,39,16.20
2009,08,27,08,40,16.30
2009,08,27,08,41,16.50
2009,08,27,08,42,16.60
2009,08,27,08,43,16.70
2009,08,27,08,44,16.70
2009,08,27,08,45,16.80
2009,08,27,08,46,16.90
2009,08,27,08,47,17.00
2009,08,27,08,48,17.20
2009,08,27,08,49,17.30
2009,08,27,08,50,17.40
2009,08,27,08,51,17.50
2009,08,27,08,52,17.50
2009,08,27,08,53,17.60
2009,08,27,08,54,17.60
2009,08,27,08,55,17.70
2009,08,27,08,56,17.70
2009,08,27,08,57,17.80
2009,08,27,08,58,17.80
2009,08,27,08,59,17.90
2009,08,27,09,00,17.90
2009,08,27,09,01,17.90
2009,08,27,09,02,18.00
2009,08,27,09,03,18.10
2009,08,27,09,04,18.10
2009,08,27,09,05,18.20
2009,08,27,09,06,18.30
2009,08,27,09,07,18.30
2009,08,27,09,08,18.40
2009,08,27,09,09,18.50
2009,08,27,09,10,18.60
2009,08,27,09,11,18.70
2009,08,27,09,12,18.80
2009,08,27,09,13,18.90
2009,08,27,09,14,18.90
2009,08,27,09,15,19.00
2009,08,27,09,16,19.10
2009,08,27,09,17,19.20
2009,08,27,09,18,19.30
2009,08,27,09,19,19.30
2009,08,27,09,20,19.40
2009,08,27,09,21,19.40
2009,08,27,09,22,19.40
2009,08,27,09,23,19.40
2009,08,27,09,24,19.40
2009,08,27,09,25,19.40
2009,08,27,09,26,19.40
2009,08,27,09,27,19.40
2009,08,27,09,28,19.40
2009,08,27,09,29,19.40
2009,08,27,09,30,19.40
2009,08,27,09,31,19.40
2009,08,27,09,32,19.40
2009,08,27,09,33,19.40
2009,08,27,09,34,19.50
2009,08,27,09,35,19.50
2009,08,27,09,36,19.50
2009,08,27,09,37,19.60
2009,08,27,09,38,19.60
2009,08,27,09,39,19.60
2009,08,27,09,40,19.70
2009,08,27,09,41,19.80
2009,08,27,09,42,19.80
2009,08,27,09,43,19.90
2009,08,27,09,44,20.00
2009,08,27,09,45,20.00
2009,08,27,09,46,20.00
2009,08,27,09,47,20.10
2009,08,27,09,48,20.10
2009,08,27,09,49,20.10
2009,08,27,09,50,20.20
2009,08,27,09,51,20.20
2009,08,27,09,52,20.20
2009,08,27,09,53,20.20
2009,08,27,09,54,20.30
2009,08,27,09,55,20.30
2009,08,27,09,56,20.30
2009,08,27,09,57,20.40
2009,08,27,09,58,20.40
2009,08,27,09,59,20.40
2009,08,27,10,00,20.50
2009,08,27,10,01,20.50
2009,08,27,10,02,20.50
2009,08,27,10,03,20.60
2009,08,27,10,04,20.60
2009,08,27,10,05,20.60
2009,08,27,10,06,20.60
2009,08,27,10,07,20.50
2009,08,27,10,08,20.50
2009,08,27,10,09,20.60
2009,08,27,10,10,20.60
2009,08,27,10,11,20.60
2009,08,27,10,12,20.60
2009,08,27,10,13,20.60
2009,08,27,10,14,20.60
2009,08,27,10,15,20.60
2009,08,27,10,16,20.50
2009,08,27,10,17,20.50
2009,08,27,10,18,20.50
2009,08,27,10,19,20.50
2009,08,27,10,20,20.50
2009,08,27,10,21,20.50
2009,08,27,10,22,20.60
2009,08,27,10,23,20.60
2009,08,27,10,24,20.60
2009,08,27,10,25,20.60
2009,08,27,10,26,20.60
2009,08,27,10,27,20.70
2009,08,27,10,28,20.70
2009,08,27,10,29,20.70
2009,08,27,10,30,20.80
2009,08,27,10,31,20.80
2009,08,27,10,32,20.80
2009,08,27,10,33,20.80
2009,08,27,10,34,20.80
2009,08,27,10,35,20.80
2009,08,27,10,36,20.90
2009,08,27,10,37,20.90
2009,08,27,10,38,20.90
2009,08,27,10,39,21.00
2009,08,27,10,40,21.00
2009,08,27,10,41,21.10
2009,08,27,10,42,21.10
2009,08,27,10,43,21.10
2009,08,27,10,44,21.20
2009,08,27,10,45,21.20
2009,08,27,10,46,21.20
2009,08,27,10,47,21.20
2009,08,27,10,48,21.30
2009,08,27,10,49,21.30
2009,08,27,10,50,21.30
2009,08,27,10,51,21.20
2009,08,27,10,52,21.20
2009,08,27,10,53,21.20
2009,08,27,10,54,21.10
2009,08,27,10,55,21.10
2009,08,27,10,56,21.10
2009,08,27,10,57,21.10
2009,08,27,10,58,21.10
2009,08,27,10,59,21.10
2009,08,27,11,00,21.20
2009,08,27,11,01,21.20
2009,08,27,11,02,21.20
2009,08,27,11,03,21.20
2009,08,27,11,04,21.20
2009,08,27,11,05,21.30
2009,08,27,11,06,21.30
2009,08,27,11,07,21.30
2009,08,27,11,08,21.40
2009,08,27,11,09,21.40
2009,08,27,11,10,21.40
2009,08,27,11,11,21.40
2009,08,27,11,12,21.50
2009,08,27,11,13,21.50
2009,08,27,11,14,21.60
2009,08,27,11,15,21.60
2009,08,27,11,16,21.60
2009,08,27,11,17,21.60
2009,08,27,11,18,21.70
2009,08,27,11,19,21.80
2009,08,27,11,20,21.90
2009,08,27,11,21,21.90
2009,08,27,11,22,22.00
2009,08,27,11,23,22.10
2009,08,27,11,24,22.10
2009,08,27,11,25,22.10
2009,08,27,11,26,22.20
2009,08,27,11,27,22.20
2009,08,27,11,28,22.20
2009,08,27,11,29,22.20
2009,08,27,11,30,22.20
2009,08,27,11,31,22.20
2009,08,27,11,32,22.20
2009,08,27,11,33,22.20
2009,08,27,11,34,22.30
2009,08,27,11,35,22.30
2009,08,27,11,36,22.30
2009,08,27,11,37,22.30
2009,08,27,11,38,22.30
2009,08,27,11,39,22.30
2009,08,27,11,40,22.30
2009,08,27,11,41,22.30
2009,08,27,11,42,22.30
2009,08,27,11,43,22.40
2009,08,27,11,44,22.40
2009,08,27,11,45,22.50
2009,08,27,11,46,22.50
2009,08,27,11,47,22.60
2009,08,27,11,48,22.60
2009,08,27,11,49,22.70
2009,08,27,11,50,22.70
2009,08,27,11,51,22.70
2009,08,27,11,52,22.80
2009,08,27,11,53,22.80
2009,08,27,11,54,22.90
2009,08,27,11,55,22.90
2009,08,27,11,56,22.90
2009,08,27,11,57,23.00
2009,08,27,11,58,23.10
2009,08,27,11,59,23.10
2009,08,27,12,00,23.20
2009,08,27,12,01,23.30
2009,08,27,12,02,23.30
2009,08,27,12,03,23.30
2009,08,27,12,04,23.30
2009,08,27,12,05,23.30
2009,08,27,12,06,23.40
2009,08,27,12,07,23.50
2009,08,27,12,08,23.60
2009,08,27,12,09,23.60
2009,08,27,12,10,23.70
2009,08,27,12,11,23.70
2009,08,27,12,12,23.80
2009,08,27,12,13,23.80
2009,08,27,12,14,23.80
2009,08,27,12,15,23.90
2009,08,27,12,16,24.00
2009,08,27,12,17,24.00
2009,08,27,12,18,24.00
2009,08,27,12,19,24.00
2009,08,27,12,20,24.10
2009,08,27,12,21,24.10
2009,08,27,12,22,24.20
2009,08,27,12,23,24.30
2009,08,27,12,24,24.30
2009,08,27,12,25,24.30
2009,08,27,12,26,24.30
2009,08,27,12,27,24.30
2009,08,27,12,28,24.30
2009,08,27,12,29,24.30
2009,08,27,12,30,24.40
2009,08,27,12,31,24.40
2009,08,27,12,32,24.40
2009,08,27,12,33,24.40
2009,08,27,12,34,24.50
2009,08,27,12,35,24.50
2009,08,27,12,36,24.60
2009,08,27,12,37,24.60
2009,08,27,12,38,24.70
2009,08,27,12,39,24.80
2009,08,27,12,40,24.80
2009,08,27,12,41,24.90
2009,08,27,12,42,24.90
2009,08,27,12,43,25.00
2009,08,27,12,44,25.00
2009,08,27,12,45,25.10
2009,08,27,12,46,25.10
2009,08,27,12,47,25.20
2009,08,27,12,48,25.30
2009,08,27,12,49,25.30
2009,08,27,12,50,25.30
2009,08,27,12,51,25.30
2009,08,27,12,52,25.20
2009,08,27,12,53,25.10
2009,08,27,12,54,25.10
2009,08,27,12,55,25.10
2009,08,27,12,56,25.10
2009,08,27,12,57,25.10
2009,08,27,12,58,25.20
2009,08,27,12,59,25.20
2009,08,27,13,00,25.20
2009,08,27,13,01,25.20
2009,08,27,13,02,25.20
2009,08,27,13,03,25.30
2009,08,27,13,04,25.30
2009,08,27,13,05,25.40
2009,08,27,13,06,25.50
2009,08,27,13,07,25.60
2009,08,27,13,08,25.70
2009,08,27,13,09,25.70
2009,08,27,13,10,25.70
2009,08,27,13,11,25.80
2009,08,27,13,12,25.80
2009,08,27,13,13,25.70
2009,08,27,13,14,25.70
2009,08,27,13,15,25.60
2009,08,27,13,16,25.60
2009,08,27,13,17,25.60
2009,08,27,13,18,25.60
2009,08,27,13,19,25.60
2009,08,27,13,20,25.60
2009,08,27,13,21,25.60
2009,08,27,13,22,25.60
2009,08,27,13,23,25.60
2009,08,27,13,24,25.60
2009,08,27,13,25,25.60
2009,08,27,13,26,25.70
2009,08,27,13,27,25.70
2009,08,27,13,28,25.70
2009,08,27,13,29,25.80
2009,08,27,13,30,25.80
2009,08,27,13,31,25.90
2009,08,27,13,32,25.90
2009,08,27,13,33,25.80
2009,08,27,13,34,25.80
2009,08,27,13,35,25.80
2009,08,27,13,36,25.80
2009,08,27,13,37,25.80
2009,08,27,13,38,25.90
2009,08,27,13,39,25.90
2009,08,27,13,40,26.00
2009,08,27,13,41,26.00
2009,08,27,13,42,26.00
2009,08,27,13,43,26.00
2009,08,27,13,44,25.90
2009,08,27,13,45,26.00
2009,08,27,13,46,26.00
2009,08,27,13,47,26.00
2009,08,27,13,48,26.10
2009,08,27,13,49,26.10
2009,08,27,13,50,26.20
2009,08,27,13,51,26.30
2009,08,27,13,52,26.30
2009,08,27,13,53,26.30
2009,08,27,13,54,26.30
2009,08,27,13,55,26.10
2009,08,27,13,56,26.10
2009,08,27,13,57,26.00
2009,08,27,13,58,25.90
2009,08,27,13,59,25.90
2009,08,27,14,00,25.90
2009,08,27,14,01,25.90
2009,08,27,14,02,25.90
2009,08,27,14,03,26.00
2009,08,27,14,04,26.10
2009,08,27,14,05,26.20
2009,08,27,14,06,26.20
2009,08,27,14,07,26.20
2009,08,27,14,08,26.20
2009,08,27,14,09,26.20
2009,08,27,14,10,26.20
2009,08,27,14,11,26.20
2009,08,27,14,12,26.30
2009,08,27,14,13,26.40
2009,08,27,14,14,26.40
2009,08,27,14,15,26.50
2009,08,27,14,16,26.50
2009,08,27,14,17,26.40
2009,08,27,14,18,26.40
2009,08,27,14,19,26.40
2009,08,27,14,20,26.40
2009,08,27,14,21,26.40
2009,08,27,14,22,26.40
2009,08,27,14,23,26.40
2009,08,27,14,24,26.50
2009,08,27,14,25,26.60
2009,08,27,14,26,26.60
2009,08,27,14,27,26.60
2009,08,27,14,28,26.60
2009,08,27,14,29,26.60
2009,08,27,14,30,26.60
2009,08,27,14,31,26.60
2009,08,27,14,32,26.60
2009,08,27,14,33,26.60
2009,08,27,14,34,26.70
2009,08,27,14,35,26.70
2009,08,27,14,36,26.80
2009,08,27,14,37,26.80
2009,08,27,14,38,26.90
2009,08,27,14,39,26.90
2009,08,27,14,40,27.00
2009,08,27,14,41,27.00
2009,08,27,14,42,27.00
2009,08,27,14,43,27.00
2009,08,27,14,44,27.00
2009,08,27,14,45,27.00
2009,08,27,14,46,27.00
2009,08,27,14,47,27.10
2009,08,27,14,48,27.10
2009,08,27,14,49,27.10
2009,08,27,14,50,27.10
2009,08,27,14,51,27.00
2009,08,27,14,52,27.00
2009,08,27,14,53,27.00
2009,08,27,14,54,26.90
2009,08,27,14,55,26.90
2009,08,27,14,56,26.80
2009,08,27,14,57,26.80
2009,08,27,14,58,26.80
2009,08,27,14,59,26.80
2009,08,27,15,00,26.80
2009,08,27,15,01,26.80
2009,08,27,15,02,26.80
2009,08,27,15,03,26.80
2009,08,27,15,04,26.80
2009,08,27,15,05,26.80
2009,08,27,15,06,26.80
2009,08,27,15,07,26.80
2009,08,27,15,08,26.80
2009,08,27,15,09,26.80
2009,08,27,15,10,26.80
2009,08,27,15,11,26.80
2009,08,27,15,12,26.80
2009,08,27,15,13,26.90
2009,08,27,15,14,26.90
2009,08,27,15,15,26.90
2009,08,27,15,16,26.90
2009,08,27,15,17,26.90
2009,08,27,15,18,26.90
2009,08,27,15,19,26.90
2009,08,27,15,20,26.90
2009,08,27,15,21,26.90
2009,08,27,15,22,26.90
2009,08,27,15,23,27.00
2009,08,27,15,24,26.90
2009,08,27,15,25,27.00
2009,08,27,15,26,27.00
2009,08,27,15,27,27.00
2009,08,27,15,28,27.00
2009,08,27,15,29,27.00
2009,08,27,15,30,27.00
2009,08,27,15,31,27.00
2009,08,27,15,32,27.10
2009,08,27,15,33,27.10
2009,08,27,15,34,27.10
2009,08,27,15,35,27.10
2009,08,27,15,36,27.10
2009,08,27,15,37,27.20
2009,08,27,15,38,27.20
2009,08,27,15,39,27.20
2009,08,27,15,40,27.20
2009,08,27,15,41,27.20
2009,08,27,15,42,27.20
2009,08,27,15,43,27.20
2009,08,27,15,44,27.20
2009,08,27,15,45,27.20
2009,08,27,15,46,27.20
2009,08,27,15,47,27.20
2009,08,27,15,48,27.30
2009,08,27,15,49,27.30
2009,08,27,15,50,27.30
2009,08,27,15,51,27.30
2009,08,27,15,52,27.30
2009,08,27,15,53,27.30
2009,08,27,15,54,27.30
2009,08,27,15,55,27.30
2009,08,27,15,56,27.30
2009,08,27,15,57,27.30
2009,08,27,15,58,27.40
2009,08,27,15,59,27.40
2009,08,27,16,00,27.40
2009,08,27,16,01,27.40
2009,08,27,16,02,27.40
2009,08,27,16,03,27.40
2009,08,27,16,04,27.40
2009,08,27,16,05,27.40
2009,08,27,16,06,27.40
2009,08,27,16,07,27.40
2009,08,27,16,08,27.40
2009,08,27,16,09,27.40
2009,08,27,16,10,27.30
2009,08,27,16,11,27.30
2009,08,27,16,12,27.20
2009,08,27,16,13,27.20
2009,08,27,16,14,27.10
2009,08,27,16,15,27.00
2009,08,27,16,16,26.90
2009,08,27,16,17,26.80
2009,08,27,16,18,26.80
2009,08,27,16,19,26.70
2009,08,27,16,20,26.70
2009,08,27,16,21,26.60
2009,08,27,16,22,26.60
2009,08,27,16,23,26.60
2009,08,27,16,24,26.60
2009,08,27,16,25,26.50
2009,08,27,16,26,26.50
2009,08,27,16,27,26.50
2009,08,27,16,28,26.40
2009,08,27,16,29,26.40
2009,08,27,16,30,26.40
2009,08,27,16,31,26.40
2009,08,27,16,32,26.40
2009,08,27,16,33,26.40
2009,08,27,16,34,26.40
2009,08,27,16,35,26.40
2009,08,27,16,36,26.40
2009,08,27,16,37,26.40
2009,08,27,16,38,26.40
2009,08,27,16,39,26.40
2009,08,27,16,40,26.40
2009,08,27,16,41,26.40
2009,08,27,16,42,26.40
2009,08,27,16,43,26.40
2009,08,27,16,44,26.40
2009,08,27,16,45,26.40
2009,08,27,16,46,26.40
2009,08,27,16,47,26.40
2009,08,27,16,48,26.40
2009,08,27,16,49,26.40
2009,08,27,16,50,26.40
2009,08,27,16,51,26.40
2009,08,27,16,52,26.40
2009,08,27,16,53,26.40
2009,08,27,16,54,26.40
2009,08,27,16,55,26.40
2009,08,27,16,56,26.40
2009,08,27,16,57,26.40
2009,08,27,16,58,26.40
2009,08,27,16,59,26.40
2009,08,27,17,00,26.40
2009,08,27,17,01,26.40
2009,08,27,17,02,26.40
2009,08,27,17,03,26.40
2009,08,27,17,04,26.40
2009,08,27,17,05,26.40
2009,08,27,17,06,26.40
2009,08,27,17,07,26.40
2009,08,27,17,08,26.30
2009,08,27,17,09,26.30
2009,08,27,17,10,26.30
2009,08,27,17,11,26.30
2009,08,27,17,12,26.30
2009,08,27,17,13,26.30
2009,08,27,17,14,26.30
2009,08,27,17,15,26.30
2009,08,27,17,16,26.30
2009,08,27,17,17,26.30
2009,08,27,17,18,26.30
2009,08,27,17,19,26.30